EDT,Max TemperatureF,Mean TemperatureF,Min TemperatureF,Max Dew PointF,MeanDew PointF,Min DewpointF,Max Humidity, Mean Humidity, Min Humidity, Max Sea Level PressureIn, Mean Sea Level PressureIn, Min Sea Level PressureIn, Max VisibilityMiles, Mean VisibilityMiles, Min VisibilityMiles, Max Wind SpeedMPH, Mean Wind SpeedMPH, Max Gust SpeedMPH,PrecipitationIn, CloudCover, Events, WindDirDegrees
2012-4-1,52,44,36,43,38,33,91,80,69,29.91,29.77,29.70,10,5,4,10,5,,0.00,7,Rain,200
2012-4-2,55,43,31,36,33,29,99,70,36,30.05,29.98,29.86,10,9,3,15,4,21,0.00,1,,87
2012-4-3,60,48,36,48,37,29,88,72,64,30.06,29.94,29.83,10,10,3,17,6,25,0.00,4,Rain,114
2012-4-4,57,46,34,46,32,23,94,57,27,29.95,29.92,29.86,10,10,7,12,5,20,0.00,0,,357
2012-4-5,46,39,32,29,27,22,85,61,44,30.07,30.02,29.93,10,10,1,14,5,20,0.00,2,,29
2012-4-6,54,41,28,29,24,19,83,57,27,30.29,30.23,30.15,10,10,10,9,3,,0.00,0,,5
2012-4-7,62,46,30,32,26,22,87,55,22,30.32,30.27,30.19,10,10,10,10,2,,0.00,0,,215
2012-4-8,58,51,44,43,31,17,88,51,20,30.10,30.07,30.02,10,10,7,31,9,41,0.00,3,Rain,279
2012-4-9,58,46,33,38,27,14,93,53,22,30.02,29.89,29.80,10,10,10,28,9,37,0.00,2,,271
2012-4-10,42,38,35,31,26,21,73,61,47,30.00,29.90,29.85,10,10,4,20,11,28,0.00,7,Snow,301
2012-4-11,52,42,33,31,27,23,89,59,33,30.19,30.11,29.99,10,10,4,13,8,20,0.00,6,Snow,323
2012-4-12,55,42,29,34,29,24,95,61,31,30.25,30.19,30.14,10,9,4,10,2,16,0.00,1,,314
2012-4-13,61,46,32,39,30,27,96,54,27,30.25,30.20,30.11,10,10,4,10,3,17,0.00,0,,169
2012-4-14,65,54,44,55,44,32,90,69,51,30.12,29.98,29.88,10,10,5,14,8,20,0.00,6,Rain,187
2012-4-15,72,64,55,64,58,54,99,85,62,29.90,29.81,29.76,10,7,1,16,7,24,0.00,7,Rain,186
2012-4-16,68,56,43,59,47,33,81,64,48,30.12,29.78,29.62,10,10,2,32,15,41,0.00,6,Rain,220
2012-4-17,53,44,34,33,31,27,87,61,38,30.35,30.29,30.12,10,10,10,14,7,21,0.00,1,,286
2012-4-18,63,48,33,38,35,30,89,60,34,30.32,30.17,29.98,10,10,10,14,8,23,0.00,1,,154
2012-4-19,69,60,52,55,47,37,80,63,50,29.99,29.93,29.85,10,10,10,14,7,16,0.00,4,Rain,226
2012-4-20,69,53,37,51,45,36,97,82,47,29.90,29.76,29.67,10,8,2,17,8,23,0.00,4,Rain,36
2012-4-21,48,42,35,36,31,22,94,70,38,30.04,29.96,29.90,10,10,10,13,8,22,0.00,5,,7
2012-4-22,50,41,32,32,24,16,90,57,27,30.03,29.99,29.96,10,10,10,21,6,32,0.00,1,,15
2012-4-23,55,45,35,25,16,8,57,34,15,29.95,29.77,29.62,10,10,10,23,11,34,0.00,0,,333
2012-4-24,59,48,37,29,20,15,55,35,20,29.71,29.59,29.53,10,10,10,28,14,39,0.00,2,,307
2012-4-25,63,47,31,48,33,25,94,57,31,29.82,29.77,29.71,10,9,5,13,4,20,0.00,3,Rain,207
2012-4-26,53,45,37,48,39,20,93,74,46,30.07,29.78,29.63,10,9,5,21,8,30,0.00,6,Rain,317
2012-4-27,52,40,29,28,21,16,78,48,25,30.23,30.18,30.08,10,10,10,12,6,18,0.00,0,,325
2012-4-28,46,41,36,31,24,18,70,51,38,30.25,30.22,30.18,10,10,10,13,7,17,0.00,4,,86
2012-4-29,62,44,26,29,21,11,86,44,18,30.35,30.27,30.20,10,10,10,12,4,,0.00,0,,94
2012-4-30,54,47,40,52,41,14,99,80,25,30.23,30.01,29.88,10,7,0,17,7,22,0.00,8,Rain,126